Location: Unspecified
(43.4680°N, 87.1740°E)
Time: 21:48:12
(UTC+00:00)

Cosmos 2242 Rocket - Pass Details

Date: 17 April 2021
Orbit: 618 x 651 km, 82.5° (Epoch: 12 May)

Event Time Altitude Azimuth Distance (km) Brightness Sun altitude
Exits shadow 20:46:53 78° 66° (ENE) 641 3.6 -25.2°
Drops below altitude 10° 20:51:08 10° 11° (N) 1,995 6.9 -24.6°
Sets 20:53:22 0° 10° (N) 2,904 7.9 -24.3°
